TITAN 3C TRANSTAGE DEB, 20760

Orbit data source: Space-Track

TITAN 3C TRANSTAGE DEB, 20760 is space debris in HEO originally from a launch on Tue, 21 Dec 1965 UTC launched from the Air Force Eastern Test Range (AFETR). Debris objects in space refer to the collection of defunct objects orbiting the Earth. Examples of debris include non-operational satellites, rocket bodies, and fragments generated from explosions, collisions, or faulty payload assembly.

Loading next visibility...
Identifier
20760, 1965-108AE
Orbit
HEO
Last TLE update
6 days ago
Origin
Manufacturer
Unknown
Mission
Spacecraft
Bus & Motor
Unknown
Mass
Unknown
Launch date (UTC)
1965-12-21 (59 years ago)
Launch vehicle
Unknown
Launch site
Air Force Eastern Test Range (AFETR)
Object type
Payload
Rocket body
Debris
Shape & HBR
Unknown
Radar Cross Section
Medium (>0.1 m² and <1 m²)

Expand to show TLE details & history

TLE from 6 days ago
0 TITAN 3C TRANSTAGE DEB
1 20760U 65108AE  25123.10801912  .00000951  00000-0  10622-1 0  9997
2 20760  26.9952 145.4374 6679391 359.6495   6.1437  2.83995646139680
Epoch: 2025-05-03T02:35Z
Definitive object data (Epoch: 2025-05-03T02:35:32.851Z)
Latitude
16.38214°
Longitude
-79.60074°
Altitude
1,298.347 km
Speed
9.216 km/s
True Right ascension
12h 02m 09s
True Declination
16° 17' 45"
Sunlit
Object was in full shadow at TLE epoch
Visualization TLE readout
Latitude
3.55553°
Longitude
55.57909°
Altitude
27,242.919 km
Speed
2.188 km/s
Apparent Right ascension
21h 31m 36s
Apparent Declination
-3° 10' 37"
Sunlit
Object is in daylight
Visualization observer readout
Local Sidereal Time
13:27:11
Azimuth
71.355° E
Elevation
-25.541°
Doppler factor
1
Orbital elements
Apogee altitude
28,760.112 km
Perigee altitude
617.345 km
Semi-major axis
21,066.865 km
Eccentricity
0.6679391
Inclination
26.9952°
RAAN
145.4374°
Arg. of periapsis
359.6495°
True anomaly
38.91782°
Mean anomaly
6.1437°
Eccentric anomaly
17.91719°
Mean motion
0.70981 °/min
BSTAR
0.010622
Orbital period
507.18 mins
Loading maneuver chart data...
Loading SW <> Apogee altitude chart data...

TITAN 3C TRANSTAGE DEB Visibility forecast

Observer location: undefined°, undefined°

Span
Click to sort rows by Start time (UTC) header in descending order
Start Az.
Max El. time (UTC)
Max El. Az.
Max El.
End time (UTC)
End Az.
405 mins2025-05-09 10:59:32.661Z270.675° WNW2025-05-09 11:55:32.661Z213.342° SW38.924°2025-05-09 17:44:32.661Z199.481° SSW
18 mins2025-05-10 03:36:32.661Z164.792° S2025-05-10 03:40:32.661Z129.568° SE19.498°2025-05-10 03:54:32.661Z88.929° E
|